| time (UTC) | temp F | wind direction | speed MPH | gust MPH | rain 1hr in | rain 24hr in | rain mn in | humidity % | barometer mb |
| 20260508154330 | 72 | 212 | 0.0 | 0.0 | 0.00 | 0.00 | 0.00 | 14 | |
| 20260508153833 | 72 | 212 | 0.0 | 0.0 | 0.00 | 0.00 | 0.00 | 14 | |
| 20260508153332 | 71 | 212 | 0.0 | 0.0 | 0.00 | 0.00 | 0.00 | 16 | |
| 20260508152834 | 70 | 212 | 0.0 | 0.0 | 0.00 | 0.00 | 0.00 | 19 | |
| 20260508152336 | 70 | 212 | 0.0 | 0.0 | 0.00 | 0.00 | 0.00 | 23 | |
| 20260508151839 | 69 | 212 | 0.0 | 0.0 | 0.00 | 0.00 | 0.00 | 25 | |
| 20260508151341 | 69 | 212 | 0.0 | 0.0 | 0.00 | 0.00 | 0.00 | 25 | |
| 20260508150844 | 68 | 212 | 0.0 | 0.0 | 0.00 | 0.00 | 0.00 | 26 | |
| 20260508150343 | 68 | 212 | 0.0 | 0.0 | 0.00 | 0.00 | 0.00 | 28 | |
| 20260508145845 | 67 | 212 | 0.0 | 0.0 | 0.00 | 0.00 | 0.00 | 31 | |
| 20260508145348 | 66 | 212 | 0.0 | 0.0 | 0.00 | 0.00 | 0.00 | 33 | |
| 20260508144850 | 65 | 212 | 0.0 | 0.0 | 0.00 | 0.00 | 0.00 | 33 | |
| 20260508144352 | 64 | 212 | 0.0 | 0.0 | 0.00 | 0.00 | 0.00 | 36 | |
| 20260508143854 | 64 | 212 | 0.0 | 0.0 | 0.00 | 0.00 | 0.00 | 39 | |
| 20260508142856 | 63 | 160 | 0.0 | 0.0 | 0.00 | 0.00 | 0.00 | 42 | |
| 20260508142439 | 62 | 205 | 0.0 | 0.0 | 0.00 | 0.00 | 0.00 | 44 | |
| 20260508142358 | 62 | 205 | 0.0 | 0.0 | 0.00 | 0.00 | 0.00 | 44 | |
| 20260508141900 | 62 | 203 | 1.0 | 0.0 | 0.00 | 0.00 | 0.00 | 45 | |
| 20260508141403 | 61 | 181 | 2.0 | 4.0 | 0.00 | 0.00 | 0.00 | 47 | |
| 20260508140905 | 60 | 212 | 0.0 | 0.0 | 0.00 | 0.00 | 0.00 | 49 | |
| 20260508140404 | 60 | 212 | 0.0 | 0.0 | 0.00 | 0.00 | 0.00 | 51 | |
| 20260508135907 | 59 | 212 | 1.0 | 4.0 | 0.00 | 0.00 | 0.00 | 55 | |
| 20260508135409 | 58 | 207 | 0.0 | 0.0 | 0.00 | 0.00 | 0.00 | 57 | |
| 20260508134911 | 57 | 207 | 0.0 | 0.0 | 0.00 | 0.00 | 0.00 | 58 | |
| 20260508134414 | 56 | 207 | 0.0 | 0.0 | 0.00 | 0.00 | 0.00 | 60 | |
| 20260508133916 | 56 | 207 | 0.0 | 0.0 | 0.00 | 0.00 | 0.00 | 61 | |
| 20260508133415 | 55 | 207 | 0.0 | 0.0 | 0.00 | 0.00 | 0.00 | 61 | |
| 20260508132917 | 55 | 207 | 0.0 | 0.0 | 0.00 | 0.00 | 0.00 | 61 | |
| 20260508132420 | 55 | 207 | 0.0 | 0.0 | 0.00 | 0.00 | 0.00 | 60 | |
| 20260508131922 | 55 | 207 | 0.0 | 0.0 | 0.00 | 0.00 | 0.00 | 58 | |
| 20260508131424 | 55 | 207 | 0.0 | 0.0 | 0.00 | 0.00 | 0.00 | 55 | |
| 20260508130928 | 55 | 207 | 0.0 | 0.0 | 0.00 | 0.00 | 0.00 | 51 | |
| 20260508130427 | 55 | 207 | 0.0 | 0.0 | 0.00 | 0.00 | 0.00 | 51 | |
| 20260508125928 | 55 | 207 | 0.0 | 0.0 | 0.00 | 0.00 | 0.00 | 50 | |
| 20260508125430 | 55 | 207 | 0.0 | 0.0 | 0.00 | 0.00 | 0.00 | 51 | |
| 20260508124933 | 55 | 207 | 2.0 | 0.0 | 0.00 | 0.00 | 0.00 | 51 | |
| 20260508124435 | 55 | 214 | 0.0 | 0.0 | 0.00 | 0.00 | 0.00 | 51 | |
| 20260508123937 | 56 | 214 | 0.0 | 0.0 | 0.00 | 0.00 | 0.00 | 51 | |
| 20260508123437 | 56 | 214 | 0.0 | 0.0 | 0.00 | 0.00 | 0.00 | 51 | |
| 20260508122939 | 56 | 214 | 4.0 | 0.0 | 0.00 | 0.00 | 0.00 | 53 | |
| 20260508122441 | 56 | 235 | 0.0 | 0.0 | 0.00 | 0.00 | 0.00 | 53 | |
| 20260508121944 | 56 | 207 | 1.0 | 0.0 | 0.00 | 0.00 | 0.00 | 55 | |
| 20260508121446 | 56 | 179 | 2.0 | 0.0 | 0.00 | 0.00 | 0.00 | 56 | |
| 20260508120949 | 56 | 207 | 4.0 | 4.0 | 0.00 | 0.00 | 0.00 | 59 | |
| 20260508120447 | 56 | 197 | 5.0 | 4.0 | 0.00 | 0.00 | 0.00 | 59 | |
| 20260508115950 | 56 | 212 | 5.0 | 5.0 | 0.00 | 0.00 | 0.00 | 60 | |
| 20260508115452 | 56 | 221 | 4.0 | 5.0 | 0.00 | 0.00 | 0.00 | 60 | |
| 20260508114954 | 56 | 239 | 2.0 | 3.0 | 0.00 | 0.00 | 0.00 | 59 | |
| 20260508114457 | 57 | 226 | 0.0 | 0.0 | 0.00 | 0.00 | 0.00 | 60 | |
| 20260508113458 | 57 | 201 | 5.0 | 6.0 | 0.00 | 0.00 | 0.00 | 61 | |
| 20260508113001 | 57 | 222 | 5.0 | 5.0 | 0.00 | 0.00 | 0.00 | 62 | |
| 20260508112503 | 56 | 222 | 6.0 | 6.0 | 0.00 | 0.00 | 0.00 | 64 | |
| 20260508112005 | 56 | 217 | 7.0 | 8.0 | 0.00 | 0.00 | 0.00 | 66 | |
| 20260508111507 | 56 | 215 | 8.0 | 6.0 | 0.00 | 0.00 | 0.00 | 67 | |
| 20260508110509 | 56 | 211 | 7.0 | 7.0 | 0.00 | 0.00 | 0.00 | 67 | |
| 20260508110012 | 56 | 218 | 7.0 | 5.0 | 0.00 | 0.00 | 0.00 | 68 | |
| 20260508105514 | 56 | 226 | 7.0 | 6.0 | 0.00 | 0.00 | 0.00 | 69 | |
| 20260508105016 | 56 | 229 | 7.0 | 8.0 | 0.00 | 0.00 | 0.00 | 70 | |
| 20260508104518 | 56 | 228 | 8.0 | 10.0 | 0.00 | 0.00 | 0.00 | 71 | |
| 20260508104021 | 56 | 215 | 7.0 | 8.0 | 0.00 | 0.00 | 0.00 | 72 | |
| 20260508103520 | 56 | 204 | 8.0 | 9.0 | 0.00 | 0.00 | 0.00 | 72 | |
| 20260508103022 | 56 | 208 | 7.0 | 8.0 | 0.00 | 0.00 | 0.00 | 71 | |
| 20260508102524 | 56 | 226 | 8.0 | 7.0 | 0.00 | 0.00 | 0.00 | 70 | |
| 20260508102028 | 57 | 217 | 7.0 | 0.0 | 0.00 | 0.00 | 0.00 | 70 | |
| 20260508101529 | 57 | 208 | 7.0 | 4.0 | 0.00 | 0.00 | 0.00 | 71 | |
| 20260508100530 | 57 | 214 | 10.0 | 10.0 | 0.00 | 0.00 | 0.00 | 71 | |
| 20260508100033 | 57 | 228 | 6.0 | 8.0 | 0.00 | 0.00 | 0.00 | 70 | |
| 20260508095535 | 57 | 232 | 7.0 | 8.0 | 0.00 | 0.00 | 0.00 | 69 | |
| 20260508095037 | 57 | 236 | 8.0 | 7.0 | 0.00 | 0.00 | 0.00 | 68 | |
| 20260508094540 | 57 | 243 | 7.0 | 7.0 | 0.00 | 0.00 | 0.00 | 67 | |
| 20260508094042 | 57 | 243 | 7.0 | 7.0 | 0.00 | 0.00 | 0.00 | 65 | |
| 20260508093541 | 58 | 226 | 7.0 | 8.0 | 0.00 | 0.00 | 0.00 | 63 | |
| 20260508092546 | 58 | 217 | 8.0 | 5.0 | 0.00 | 0.00 | 0.00 | 61 | |
| 20260508092048 | 58 | 236 | 7.0 | 9.0 | 0.00 | 0.00 | 0.00 | 60 | |
| 20260508091550 | 59 | 231 | 5.0 | 4.0 | 0.00 | 0.00 | 0.00 | 58 | |
| 20260508091053 | 59 | 243 | 4.0 | 5.0 | 0.00 | 0.00 | 0.00 | 58 | |
| 20260508090552 | 59 | 252 | 5.0 | 0.0 | 0.00 | 0.00 | 0.00 | 57 | |
| 20260508090054 | 59 | 240 | 7.0 | 8.0 | 0.00 | 0.00 | 0.00 | 57 | |
| 20260508085557 | 59 | 184 | 7.0 | 4.0 | 0.00 | 0.00 | 0.00 | 57 | |
| 20260508085059 | 59 | 225 | 7.0 | 4.0 | 0.00 | 0.00 | 0.00 | 58 | |
| 20260508084601 | 59 | 248 | 7.0 | 7.0 | 0.00 | 0.00 | 0.00 | 59 | |
| 20260508084104 | 59 | 219 | 9.0 | 9.0 | 0.00 | 0.00 | 0.00 | 61 | |
| 20260508083603 | 59 | 238 | 10.0 | 8.0 | 0.00 | 0.00 | 0.00 | 61 | |
| 20260508083105 | 59 | 239 | 9.0 | 10.0 | 0.00 | 0.00 | 0.00 | 61 | |
| 20260508082607 | 59 | 250 | 9.0 | 5.0 | 0.00 | 0.00 | 0.00 | 61 | |
| 20260508082110 | 59 | 218 | 10.0 | 7.0 | 0.00 | 0.00 | 0.00 | 63 | |
| 20260508081612 | 59 | 243 | 11.0 | 10.0 | 0.00 | 0.00 | 0.00 | 64 | |
| 20260508081114 | 59 | 225 | 12.0 | 13.0 | 0.00 | 0.00 | 0.00 | 65 | |
| 20260508080613 | 59 | 235 | 13.0 | 12.0 | 0.00 | 0.00 | 0.00 | 65 | |
| 20260508080117 | 59 | 238 | 11.0 | 11.0 | 0.00 | 0.00 | 0.00 | 64 | |
| 20260508075618 | 59 | 212 | 12.0 | 13.0 | 0.00 | 0.00 | 0.00 | 65 | |
| 20260508074623 | 59 | 238 | 10.0 | 12.0 | 0.00 | 0.00 | 0.00 | 65 | |
| 20260508074125 | 59 | 246 | 13.0 | 10.0 | 0.00 | 0.00 | 0.00 | 66 | |
| 20260508073624 | 59 | 233 | 13.0 | 12.0 | 0.00 | 0.00 | 0.00 | 65 | |
| 20260508072131 | 59 | 217 | 12.0 | 14.0 | 0.00 | 0.00 | 0.00 | 64 | |
| 20260508071633 | 60 | 217 | 14.0 | 10.0 | 0.00 | 0.00 | 0.00 | 64 | |
| 20260508071136 | 60 | 225 | 13.0 | 15.0 | 0.00 | 0.00 | 0.00 | 64 | |
| 20260508070635 | 60 | 243 | 12.0 | 12.0 | 0.00 | 0.00 | 0.00 | 63 | |
| 20260508070137 | 60 | 232 | 12.0 | 12.0 | 0.00 | 0.00 | 0.00 | 63 | |
| 20260508065639 | 60 | 242 | 13.0 | 12.0 | 0.00 | 0.00 | 0.00 | 62 | |
| 20260508065142 | 60 | 228 | 16.0 | 16.0 | 0.00 | 0.00 | 0.00 | 63 | |
| 20260508064644 | 60 | 243 | 16.0 | 16.0 | 0.00 | 0.00 | 0.00 | 63 | |
| 20260508064147 | 60 | 226 | 13.0 | 18.0 | 0.00 | 0.00 | 0.00 | 63 | |
| 20260508063646 | 60 | 229 | 17.0 | 15.0 | 0.00 | 0.00 | 0.00 | 63 | |
| 20260508063148 | 60 | 240 | 12.0 | 9.0 | 0.00 | 0.00 | 0.00 | 64 | |
| 20260508062650 | 60 | 231 | 16.0 | 15.0 | 0.00 | 0.00 | 0.00 | 65 | |
| 20260508062153 | 60 | 245 | 12.0 | 12.0 | 0.00 | 0.00 | 0.00 | 64 | |
| 20260508061655 | 60 | 240 | 12.0 | 12.0 | 0.00 | 0.00 | 0.00 | 65 | |
| 20260508061157 | 60 | 240 | 12.0 | 12.0 | 0.00 | 0.00 | 0.00 | 65 | |
| 20260508060656 | 60 | 219 | 14.0 | 17.0 | 0.00 | 0.00 | 0.00 | 65 | |
| 20260508060159 | 60 | 229 | 14.0 | 12.0 | 0.00 | 0.00 | 0.00 | 66 | |
| 20260508055701 | 60 | 236 | 16.0 | 18.0 | 0.00 | 0.00 | 0.00 | 66 | |
| 20260508055203 | 60 | 248 | 11.0 | 11.0 | 0.00 | 0.00 | 0.00 | 66 | |
| 20260508054707 | 60 | 214 | 11.0 | 10.0 | 0.00 | 0.00 | 0.00 | 66 | |
| 20260508054208 | 60 | 240 | 12.0 | 12.0 | 0.00 | 0.00 | 0.00 | 66 | |
| 20260508053708 | 60 | 212 | 13.0 | 12.0 | 0.00 | 0.00 | 0.00 | 66 | |
| 20260508053209 | 59 | 249 | 11.0 | 10.0 | 0.00 | 0.00 | 0.00 | 67 | |
| 20260508052712 | 60 | 255 | 11.0 | 11.0 | 0.00 | 0.00 | 0.00 | 67 | |
| 20260508052214 | 60 | 229 | 11.0 | 12.0 | 0.00 | 0.00 | 0.00 | 68 | |
| 20260508051716 | 60 | 238 | 12.0 | 10.0 | 0.00 | 0.00 | 0.00 | 68 | |
| 20260508051218 | 60 | 248 | 12.0 | 13.0 | 0.00 | 0.00 | 0.00 | 68 | |
| 20260508050718 | 60 | 219 | 14.0 | 14.0 | 0.00 | 0.00 | 0.00 | 68 | |
| 20260508050220 | 60 | 233 | 10.0 | 10.0 | 0.00 | 0.00 | 0.00 | 68 | |
| 20260508045722 | 60 | 235 | 11.0 | 15.0 | 0.00 | 0.00 | 0.00 | 67 | |
| 20260508045224 | 60 | 233 | 14.0 | 14.0 | 0.00 | 0.00 | 0.00 | 69 | |
| 20260508044727 | 60 | 229 | 12.0 | 12.0 | 0.00 | 0.00 | 0.00 | 68 | |
| 20260508044229 | 60 | 221 | 12.0 | 11.0 | 0.00 | 0.00 | 0.00 | 69 | |
| 20260508043728 | 60 | 242 | 13.0 | 13.0 | 0.00 | 0.00 | 0.00 | 67 | |
| 20260508043230 | 60 | 238 | 10.0 | 8.0 | 0.00 | 0.00 | 0.00 | 67 | |
| 20260508042733 | 60 | 243 | 13.0 | 13.0 | 0.00 | 0.00 | 0.00 | 66 | |
| 20260508042235 | 60 | 245 | 11.0 | 10.0 | 0.00 | 0.00 | 0.00 | 66 | |
| 20260508041738 | 60 | 200 | 14.0 | 13.0 | 0.00 | 0.00 | 0.00 | 65 | |
| 20260508041242 | 60 | 217 | 13.0 | 0.0 | 0.00 | 0.00 | 0.00 | 64 | |
| 20260508041240 | 60 | 217 | 13.0 | 12.0 | 0.00 | 0.00 | 0.00 | 64 | |
| 20260508040739 | 61 | 246 | 15.0 | 14.0 | 0.00 | 0.00 | 0.00 | 64 | |
| 20260508040243 | 61 | 229 | 10.0 | 10.0 | 0.00 | 0.00 | 0.00 | 63 | |
| 20260508035744 | 61 | 246 | 13.0 | 9.0 | 0.00 | 0.00 | 0.00 | 62 | |
| 20260508035246 | 61 | 238 | 14.0 | 12.0 | 0.00 | 0.00 | 0.00 | 61 | |
| 20260508034749 | 61 | 229 | 13.0 | 17.0 | 0.00 | 0.00 | 0.00 | 59 | |
| 20260508034251 | 62 | 212 | 12.0 | 11.0 | 0.00 | 0.00 | 0.00 | 58 | |
| 20260508033749 | 62 | 221 | 13.0 | 16.0 | 0.00 | 0.00 | 0.00 | 57 | |
| 20260508033252 | 62 | 233 | 13.0 | 12.0 | 0.00 | 0.00 | 0.00 | 56 | |
| 20260508032754 | 62 | 222 | 17.0 | 16.0 | 0.00 | 0.00 | 0.00 | 56 | |
| 20260508032256 | 62 | 228 | 13.0 | 15.0 | 0.00 | 0.00 | 0.00 | 54 | |
| 20260508031759 | 62 | 233 | 10.0 | 12.0 | 0.00 | 0.00 | 0.00 | 53 | |
| 20260508031301 | 63 | 228 | 8.0 | 12.0 | 0.00 | 0.00 | 0.00 | 52 | |
| 20260508030800 | 63 | 225 | 14.0 | 13.0 | 0.00 | 0.00 | 0.00 | 52 | |
| 20260508030302 | 63 | 217 | 11.0 | 12.0 | 0.00 | 0.00 | 0.00 | 50 | |
| 20260508025805 | 63 | 236 | 13.0 | 12.0 | 0.00 | 0.00 | 0.00 | 49 | |
| 20260508025307 | 64 | 219 | 16.0 | 12.0 | 0.00 | 0.00 | 0.00 | 48 | |
| 20260508024809 | 64 | 225 | 12.0 | 13.0 | 0.00 | 0.00 | 0.00 | 47 | |
| 20260508024311 | 65 | 218 | 11.0 | 15.0 | 0.00 | 0.00 | 0.00 | 46 | |
| 20260508023810 | 65 | 231 | 12.0 | 15.0 | 0.00 | 0.00 | 0.00 | 45 | |
| 20260508022815 | 66 | 233 | 15.0 | 9.0 | 0.00 | 0.00 | 0.00 | 41 | |
| 20260508022317 | 67 | 221 | 13.0 | 10.0 | 0.00 | 0.00 | 0.00 | 40 | |
| 20260508021820 | 67 | 240 | 14.0 | 13.0 | 0.00 | 0.00 | 0.00 | 40 | |
| 20260508021322 | 68 | 222 | 10.0 | 10.0 | 0.00 | 0.00 | 0.00 | 38 | |
| 20260508020821 | 68 | 203 | 10.0 | 9.0 | 0.00 | 0.00 | 0.00 | 37 | |
| 20260508020323 | 69 | 225 | 12.0 | 10.0 | 0.00 | 0.00 | 0.00 | 36 | |
| 20260508015826 | 69 | 219 | 9.0 | 14.0 | 0.00 | 0.00 | 0.00 | 35 | |
| 20260508015328 | 70 | 239 | 10.0 | 8.0 | 0.00 | 0.00 | 0.00 | 34 | |
| 20260508014830 | 71 | 229 | 6.0 | 12.0 | 0.00 | 0.00 | 0.00 | 32 | |
| 20260508014332 | 71 | 248 | 8.0 | 4.0 | 0.00 | 0.00 | 0.00 | 32 | |
| 20260508013832 | 71 | 233 | 12.0 | 12.0 | 0.00 | 0.00 | 0.00 | 31 | |
| 20260508013334 | 72 | 217 | 10.0 | 5.0 | 0.00 | 0.00 | 0.00 | 29 | |
| 20260508012836 | 72 | 201 | 11.0 | 8.0 | 0.00 | 0.00 | 0.00 | 29 | |
| 20260508012338 | 73 | 240 | 12.0 | 9.0 | 0.00 | 0.00 | 0.00 | 28 | |
| 20260508011841 | 73 | 195 | 13.0 | 4.0 | 0.00 | 0.00 | 0.00 | 27 | |
| 20260508011343 | 74 | 238 | 13.0 | 10.0 | 0.00 | 0.00 | 0.00 | 26 | |
| 20260508010842 | 75 | 228 | 10.0 | 15.0 | 0.00 | 0.00 | 0.00 | 24 | |
| 20260508010344 | 75 | 218 | 12.0 | 20.0 | 0.00 | 0.00 | 0.00 | 22 | |
| 20260508005847 | 76 | 256 | 10.0 | 12.0 | 0.00 | 0.00 | 0.00 | 21 | |
| 20260508005349 | 76 | 215 | 11.0 | 5.0 | 0.00 | 0.00 | 0.00 | 20 | |
| 20260508004851 | 77 | 233 | 14.0 | 9.0 | 0.00 | 0.00 | 0.00 | 19 | |
| 20260508004353 | 77 | 225 | 11.0 | 15.0 | 0.00 | 0.00 | 0.00 | 18 | |
| 20260508003852 | 78 | 233 | 15.0 | 10.0 | 0.00 | 0.00 | 0.00 | 17 | |
| 20260508003355 | 78 | 228 | 15.0 | 16.0 | 0.00 | 0.00 | 0.00 | 16 | |
| 20260508002857 | 78 | 236 | 6.0 | 10.0 | 0.00 | 0.00 | 0.00 | 15 | |
| 20260508002359 | 79 | 172 | 10.0 | 0.0 | 0.00 | 0.00 | 0.00 | 15 | |
| 20260508001902 | 79 | 243 | 14.0 | 4.0 | 0.00 | 0.00 | 0.00 | 14 | |
| 20260508001404 | 80 | 210 | 10.0 | 9.0 | 0.00 | 0.00 | 0.00 | 13 | |
| 20260508000903 | 80 | 212 | 10.0 | 6.0 | 0.00 | 0.00 | 0.00 | 13 | |
| 20260508000405 | 80 | 204 | 8.0 | 12.0 | 0.00 | 0.00 | 0.00 | 12 | |
| 20260507235907 | 80 | 208 | 12.0 | 7.0 | 0.00 | 0.00 | 0.00 | 11 | |
| 20260507235410 | 81 | 214 | 8.0 | 13.0 | 0.00 | 0.00 | 0.00 | 11 | |
| 20260507234912 | 81 | 259 | 11.0 | 5.0 | 0.00 | 0.00 | 0.00 | 11 | |
| 20260507234414 | 81 | 246 | 8.0 | 0.0 | 0.00 | 0.00 | 0.00 | 11 | |
| 20260507233913 | 81 | 236 | 0.0 | 10.0 | 0.00 | 0.00 | 0.00 | 11 | |
| 20260507233416 | 81 | 224 | 14.0 | 15.0 | 0.00 | 0.00 | 0.00 | 9 | |
| 20260507232918 | 82 | 228 | 9.0 | 12.0 | 0.00 | 0.00 | 0.00 | 9 | |
| 20260507232420 | 82 | 229 | 10.0 | 19.0 | 0.00 | 0.00 | 0.00 | 7 | |
| 20260507231922 | 82 | 238 | 9.0 | 14.0 | 0.00 | 0.00 | 0.00 | 8 | |
| 20260507231425 | 83 | 221 | 7.0 | 6.0 | 0.00 | 0.00 | 0.00 | 7 | |
| 20260507230924 | 82 | 231 | 8.0 | 0.0 | 0.00 | 0.00 | 0.00 | 7 | |
| 20260507230426 | 83 | 187 | 7.0 | 0.0 | 0.00 | 0.00 | 0.00 | 6 | |
| 20260507225928 | 83 | 219 | 15.0 | 12.0 | 0.00 | 0.00 | 0.00 | 6 | |
| 20260507225431 | 84 | 208 | 9.0 | 3.0 | 0.00 | 0.00 | 0.00 | 6 | |
| 20260507224933 | 84 | 240 | 3.0 | 10.0 | 0.00 | 0.00 | 0.00 | 6 | |
| 20260507224436 | 85 | 222 | 3.0 | 7.0 | 0.00 | 0.00 | 0.00 | 6 | |
| 20260507223934 | 85 | 245 | 7.0 | 12.0 | 0.00 | 0.00 | 0.00 | 6 | |
| 20260507223437 | 85 | 242 | 4.0 | 0.0 | 0.00 | 0.00 | 0.00 | 6 | |
| 20260507222939 | 85 | 242 | 8.0 | 0.0 | 0.00 | 0.00 | 0.00 | 5 | |
| 20260507222441 | 85 | 226 | 0.0 | 0.0 | 0.00 | 0.00 | 0.00 | 5 | |
| 20260507221446 | 86 | 218 | 3.0 | 5.0 | 0.00 | 0.00 | 0.00 | 6 | |
| 20260507220945 | 85 | 222 | 3.0 | 10.0 | 0.00 | 0.00 | 0.00 | 5 | |
| 20260507220447 | 85 | 233 | 0.0 | 0.0 | 0.00 | 0.00 | 0.00 | 5 | |
| 20260507215949 | 85 | 249 | 9.0 | 4.0 | 0.00 | 0.00 | 0.00 | 5 | |
| 20260507215452 | 86 | 239 | 12.0 | 9.0 | 0.00 | 0.00 | 0.00 | 5 | |
| 20260507214954 | 86 | 233 | 6.0 | 0.0 | 0.00 | 0.00 | 0.00 | 5 | |
| 20260507214456 | 86 | 236 | 8.0 | 17.0 | 0.00 | 0.00 | 0.00 | 5 | |
| 20260507213955 | 86 | 205 | 5.0 | 0.0 | 0.00 | 0.00 | 0.00 | 4 | |
| 20260507213458 | 86 | 221 | 4.0 | 0.0 | 0.00 | 0.00 | 0.00 | 4 | |
| 20260507213000 | 86 | 245 | 0.0 | 0.0 | 0.00 | 0.00 | 0.00 | 4 | |
| 20260507212502 | 86 | 222 | 3.0 | 5.0 | 0.00 | 0.00 | 0.00 | 4 | |
| 20260507212004 | 86 | 203 | 11.0 | 0.0 | 0.00 | 0.00 | 0.00 | 4 | |
| 20260507211507 | 86 | 333 | 3.0 | 7.0 | 0.00 | 0.00 | 0.00 | 2 | |
| 20260507210509 | 86 | 13 | 0.0 | 0.0 | 0.00 | 0.00 | 0.00 | 3 | |
| 20260507210010 | 86 | 13 | 0.0 | 0.0 | 0.00 | 0.00 | 0.00 | 3 | |
| 20260507205513 | 85 | 13 | 0.0 | 0.0 | 0.00 | 0.00 | 0.00 | 3 | |
| 20260507204604 | 85 | 13 | 0.0 | 0.0 | 0.00 | 0.00 | 0.00 | 3 | |
| 20260507204517 | 85 | 13 | 0.0 | 0.0 | 0.00 | 0.00 | 0.00 | 3 | |
| 20260507204016 | 85 | 13 | 0.0 | 0.0 | 0.00 | 0.00 | 0.00 | 3 | |
| 20260507203519 | 85 | 13 | 0.0 | 0.0 | 0.00 | 0.00 | 0.00 | 3 | |
| 20260507203021 | 85 | 13 | 0.0 | 0.0 | 0.00 | 0.00 | 0.00 | 3 | |
| 20260507202523 | 84 | 13 | 0.0 | 0.0 | 0.00 | 0.00 | 0.00 | 3 | |
| 20260507202026 | 84 | 13 | 0.0 | 0.0 | 0.00 | 0.00 | 0.00 | 3 | |
| 20260507201529 | 84 | 13 | 0.0 | 0.0 | 0.00 | 0.00 | 0.00 | 3 | |
| 20260507201027 | 84 | 13 | 0.0 | 0.0 | 0.00 | 0.00 | 0.00 | 3 | |
| 20260507200530 | 84 | 13 | 0.0 | 0.0 | 0.00 | 0.00 | 0.00 | 3 | |
| 20260507200032 | 84 | 13 | 0.0 | 0.0 | 0.00 | 0.00 | 0.00 | 3 | |
| 20260507195534 | 84 | 13 | 0.0 | 0.0 | 0.00 | 0.00 | 0.00 | 3 | |
| 20260507195036 | 84 | 13 | 0.0 | 0.0 | 0.00 | 0.00 | 0.00 | 3 | |
| 20260507194539 | 84 | 13 | 0.0 | 0.0 | 0.00 | 0.00 | 0.00 | 3 | |
| 20260507194038 | 84 | 13 | 0.0 | 0.0 | 0.00 | 0.00 | 0.00 | 3 | |
| 20260507193540 | 84 | 13 | 0.0 | 0.0 | 0.00 | 0.00 | 0.00 | 3 | |
| 20260507193042 | 84 | 13 | 0.0 | 0.0 | 0.00 | 0.00 | 0.00 | 3 | |
| 20260507192545 | 84 | 13 | 0.0 | 0.0 | 0.00 | 0.00 | 0.00 | 3 | |
| 20260507192047 | 84 | 13 | 0.0 | 0.0 | 0.00 | 0.00 | 0.00 | 4 | |
| 20260507191549 | 84 | 13 | 0.0 | 0.0 | 0.00 | 0.00 | 0.00 | 4 | |
| 20260507191049 | 84 | 13 | 0.0 | 0.0 | 0.00 | 0.00 | 0.00 | 4 | |
| 20260507190551 | 84 | 13 | 0.0 | 0.0 | 0.00 | 0.00 | 0.00 | 4 | |
| 20260507190053 | 84 | 13 | 0.0 | 0.0 | 0.00 | 0.00 | 0.00 | 4 | |
| 20260507185555 | 83 | 13 | 0.0 | 0.0 | 0.00 | 0.00 | 0.00 | 4 | |
| 20260507185058 | 83 | 13 | 0.0 | 0.0 | 0.00 | 0.00 | 0.00 | 4 | |
| 20260507184600 | 83 | 13 | 0.0 | 0.0 | 0.00 | 0.00 | 0.00 | 4 | |
| 20260507184059 | 83 | 13 | 0.0 | 0.0 | 0.00 | 0.00 | 0.00 | 4 | |
| 20260507183602 | 82 | 13 | 0.0 | 0.0 | 0.00 | 0.00 | 0.00 | 4 | |
| 20260507183104 | 82 | 13 | 0.0 | 0.0 | 0.00 | 0.00 | 0.00 | 4 | |
| 20260507182606 | 82 | 13 | 0.0 | 0.0 | 0.00 | 0.00 | 0.00 | 4 | |
| 20260507181611 | 82 | 13 | 0.0 | 0.0 | 0.00 | 0.00 | 0.00 | 4 | |
| 20260507181110 | 81 | 13 | 0.0 | 0.0 | 0.00 | 0.00 | 0.00 | 4 | |
| 20260507180612 | 82 | 13 | 0.0 | 0.0 | 0.00 | 0.00 | 0.00 | 5 | |
| 20260507180115 | 82 | 13 | 0.0 | 0.0 | 0.00 | 0.00 | 0.00 | 5 | |
| 20260507175617 | 82 | 248 | 0.0 | 0.0 | 0.00 | 0.00 | 0.00 | 5 | |
| 20260507175119 | 82 | 248 | 0.0 | 0.0 | 0.00 | 0.00 | 0.00 | 5 | |
| 20260507174622 | 82 | 248 | 0.0 | 0.0 | 0.00 | 0.00 | 0.00 | 5 | |
| 20260507174121 | 82 | 248 | 0.0 | 0.0 | 0.00 | 0.00 | 0.00 | 5 | |
| 20260507173623 | 81 | 248 | 0.0 | 0.0 | 0.00 | 0.00 | 0.00 | 5 | |
| 20260507173126 | 81 | 248 | 0.0 | 0.0 | 0.00 | 0.00 | 0.00 | 5 | |
| 20260507172629 | 80 | 248 | 0.0 | 0.0 | 0.00 | 0.00 | 0.00 | 5 | |
| 20260507172130 | 80 | 248 | 0.0 | 0.0 | 0.00 | 0.00 | 0.00 | 5 | |
| 20260507171633 | 80 | 248 | 0.0 | 0.0 | 0.00 | 0.00 | 0.00 | 5 | |
| 20260507171132 | 80 | 248 | 0.0 | 0.0 | 0.00 | 0.00 | 0.00 | 6 | |
| 20260507170634 | 79 | 248 | 0.0 | 0.0 | 0.00 | 0.00 | 0.00 | 6 | |
| 20260507170137 | 79 | 248 | 0.0 | 0.0 | 0.00 | 0.00 | 0.00 | 6 | |
| 20260507165639 | 78 | 248 | 0.0 | 0.0 | 0.00 | 0.00 | 0.00 | 6 | |
| 20260507165141 | 78 | 248 | 0.0 | 0.0 | 0.00 | 0.00 | 0.00 | 6 | |
| 20260507164643 | 78 | 248 | 0.0 | 0.0 | 0.00 | 0.00 | 0.00 | 6 | |
| 20260507164143 | 78 | 248 | 0.0 | 0.0 | 0.00 | 0.00 | 0.00 | 6 | |
| 20260507163646 | 78 | 248 | 0.0 | 0.0 | 0.00 | 0.00 | 0.00 | 6 | |
| 20260507163147 | 77 | 248 | 0.0 | 0.0 | 0.00 | 0.00 | 0.00 | 6 | |
| 20260507162650 | 77 | 248 | 0.0 | 0.0 | 0.00 | 0.00 | 0.00 | 7 | |
| 20260507162152 | 76 | 248 | 0.0 | 0.0 | 0.00 | 0.00 | 0.00 | 7 | |
| 20260507161154 | 76 | 248 | 0.0 | 0.0 | 0.00 | 0.00 | 0.00 | 8 | |
| 20260507160656 | 75 | 248 | 0.0 | 0.0 | 0.00 | 0.00 | 0.00 | 8 | |
| 20260507160158 | 75 | 248 | 0.0 | 0.0 | 0.00 | 0.00 | 0.00 | 9 | |
| 20260507155701 | 74 | 248 | 0.0 | 0.0 | 0.00 | 0.00 | 0.00 | 9 | |
| 20260507155203 | 74 | 248 | 0.0 | 0.0 | 0.00 | 0.00 | 0.00 | 11 | |
| 20260507154706 | 73 | 248 | 0.0 | 0.0 | 0.00 | 0.00 | 0.00 | 11 |